Location: Newark
(44.0160°N, 116.9215°W)
Time: 13:18:43
(UTC+00:00)

Envisat - Pass Details

Date: 23 November 2019
Orbit: 764 x 766 km, 98.1° (Epoch: 15 December)

Event Time Altitude Azimuth Distance (km) Brightness Sun altitude
Rises 13:32:21 0° 28° (NNE) 3,240 6.4 -14.3°
Reaches altitude 10° 13:35:18 10° 45° (NE) 2,308 5.9 -13.8°
Maximum altitude 13:38:58 20° 92° (E) 1,725 5.9 -13.1°
Drops below altitude 10° 13:42:36 10° 138° (SE) 2,296 6.4 -12.5°
Sets 13:45:30 0° 155° (SSE) 3,216 6.9 -12.0°
